Weather History for LIRF - June, 2013

Change the Weather History Date:

Sunday, June 30, 2013

  Actual Average Record
Temperature  
Mean Temperature 68 °F -  
Max Temperature 77 °F 83 °F 89 °F (2003)
Min Temperature 60 °F 65 °F 59 °F (2007)
Cooling Degree Days 4    
Growing Degree Days 18 (Base 50)    
Moisture  
Dew Point 53 °F    
Average Humidity 57    
Maximum Humidity 78    
Minimum Humidity 28    
Precipitation  
Precipitation 0.00 in 0.02 in - ()
Sea Level Pressure  
Sea Level Pressure 30.04 in    
Wind  
Wind Speed 6 mph ()    
Max Wind Speed 14 mph    
Max Gust Speed -    
Averages and records for this station are not official NWS values.
T = Trace of Precipitation, MM = Missing Value Source: Averaged Metar Reports

Daily Weather History Graph

Daily Weather History Graph

Search for Another Location

Airport or City:

Trip Planner

Search our weather history database for the weather conditions in past years. The results will help you decide how hot, cold, wet, or windy it might be!

Date:

Astronomy

Jun. 30, 2013 Rise Set
Actual Time 5:39 AM CEST 8:49 PM CEST
Civil Twilight 5:05 AM CEST 9:23 PM CEST
Nautical Twilight 4:21 AM CEST 10:07 PM CEST
Astronomical Twilight 3:28 AM CEST 11:00 PM CEST
Moon 12:34 AM CEST (6/30) 1:43 PM CEST (6/30)
Length of Visible Light 16h 18m
Length of Day
15h 10m
Waning Gibbous, 48% of the Moon is Illuminated
Jun 30
Waning Gibbous
Jul 8
New
Jul 16
First Quarter
Jul 22
Full
Jul 29
Last Quarter

Hourly Weather History & Observations

Time (CEST) Temp. Dew Point Humidity Pressure Visibility Wind Dir Wind Speed Gust Speed Precip Events Conditions
12:20 AM 64.4 °F 53.6 °F 68% 30.04 in - North 5.8 mph - N/A   Clear
12:50 AM 62.6 °F 51.8 °F 68% 30.04 in - North 5.8 mph - N/A   Clear
1:20 AM 62.6 °F 50.0 °F 63% 30.04 in - NE 4.6 mph - N/A   Clear
1:50 AM 62.6 °F 48.2 °F 59% 30.04 in - NE 4.6 mph - N/A   Clear
2:20 AM 60.8 °F 50.0 °F 68% 30.01 in - Variable 2.3 mph - N/A   Clear
2:50 AM 60.8 °F 48.2 °F 63% 30.04 in - NE 5.8 mph - N/A   Clear
3:20 AM 62.6 °F 48.2 °F 59% 30.01 in - Variable 2.3 mph - N/A   Clear
3:50 AM 60.8 °F 48.2 °F 63% 30.01 in - Variable 2.3 mph - N/A   Clear
4:20 AM 60.8 °F 46.4 °F 59% 30.01 in - Variable 2.3 mph - N/A   Clear
4:50 AM 60.8 °F 48.2 °F 63% 30.01 in - NE 5.8 mph - N/A   Clear
5:20 AM 60.8 °F 48.2 °F 63% 30.01 in - Variable 2.3 mph - N/A   Clear
5:50 AM 60.8 °F 48.2 °F 63% 30.01 in - NE 4.6 mph - N/A   Clear
6:20 AM 60.8 °F 50.0 °F 68% 30.04 in - NNE 4.6 mph - N/A   Clear
6:50 AM 62.6 °F 50.0 °F 63% 30.04 in - NNE 4.6 mph - N/A   Clear
7:20 AM 64.4 °F 50.0 °F 59% 30.04 in - Variable 2.3 mph - N/A   Clear
7:50 AM 66.2 °F 50.0 °F 56% 30.04 in - NNE 5.8 mph - N/A   Clear
8:20 AM 68.0 °F 50.0 °F 52% 30.04 in - Variable 2.3 mph - N/A   Clear
8:50 AM 69.8 °F 48.2 °F 46% 30.04 in - Variable 3.5 mph - N/A   Clear
9:20 AM 71.6 °F 50.0 °F 46% 30.06 in - Variable 2.3 mph - N/A   Clear
9:50 AM 73.4 °F 46.4 °F 38% 30.04 in - Variable 3.5 mph - N/A   Clear
10:20 AM 75.2 °F 44.6 °F 34% 30.04 in - NNE 6.9 mph - N/A   Clear
10:50 AM 77.0 °F 41.0 °F 28% 30.04 in - East 8.1 mph - N/A   Clear
11:20 AM 75.2 °F 50.0 °F 41% 30.04 in - Variable 6.9 mph - N/A   Clear
11:50 AM 73.4 °F 51.8 °F 47% 30.04 in - West 11.5 mph - N/A   Clear
12:20 PM 75.2 °F 53.6 °F 47% 30.04 in - West 12.7 mph - N/A   Clear
12:50 PM 75.2 °F 51.8 °F 44% 30.04 in - West 12.7 mph - N/A   Clear
1:50 PM 75.2 °F 51.8 °F 44% 30.04 in - West 13.8 mph - N/A   Clear
2:20 PM 75.2 °F 51.8 °F 44% 30.04 in - West 13.8 mph - N/A   Clear
2:50 PM 77.0 °F 50.0 °F 39% 30.04 in - West 12.7 mph - N/A   Clear
3:20 PM 75.2 °F 51.8 °F 44% 30.04 in - West 13.8 mph - N/A   Clear
3:50 PM 77.0 °F 51.8 °F 41% 30.04 in - West 11.5 mph - N/A   Clear
4:20 PM 75.2 °F 53.6 °F 47% 30.04 in - West 12.7 mph - N/A   Clear
4:50 PM 75.2 °F 51.8 °F 44% 30.04 in - West 13.8 mph - N/A   Clear
5:20 PM 75.2 °F 53.6 °F 47% 30.04 in - West 13.8 mph - N/A   Clear
5:50 PM 73.4 °F 59.0 °F 61% 30.04 in - West 13.8 mph - N/A   Clear
6:20 PM 73.4 °F 57.2 °F 57% 30.04 in - West 13.8 mph - N/A   Clear
6:50 PM 73.4 °F 57.2 °F 57% 30.04 in - West 12.7 mph - N/A   Clear
7:20 PM 73.4 °F 59.0 °F 61% 30.04 in - West 10.4 mph - N/A   Clear
7:50 PM 71.6 °F 59.0 °F 64% 30.04 in - West 10.4 mph - N/A   Clear
8:20 PM 69.8 °F 59.0 °F 68% 30.04 in - West 8.1 mph - N/A   Clear
8:50 PM 69.8 °F 60.8 °F 73% 30.04 in - West 6.9 mph - N/A   Clear
9:20 PM 68.0 °F 60.8 °F 78% 30.06 in - WSW 8.1 mph - N/A   Clear
9:50 PM 69.8 °F 60.8 °F 73% 30.06 in - WSW 8.1 mph - N/A   Clear
10:20 PM 69.8 °F 60.8 °F 73% 30.06 in - SW 8.1 mph - N/A   Clear
10:50 PM 69.8 °F 60.8 °F 73% 30.06 in - SW 5.8 mph - N/A   Clear
11:20 PM 69.8 °F 60.8 °F 73% 30.06 in - SW 5.8 mph - N/A   Clear
11:50 PM 68.0 °F 60.8 °F 78% 30.09 in - SW 4.6 mph - N/A   Clear